sat.trackr.live / text

‹ back to catalog

HORIZONS-3E

NORAD 43633 · 2018-074B

PAYLOAD ACTIVE UNKNOWN

§ Identity

Operator
Country
ITSO
Launch date
2018-09-25
Launch site
FRGUI
Launch vehicle
Mass (kg)
RCS (m²)

Purposes: comms

External: N2YO · Heavens-Above · Gunter

§ Orbital elements

Epoch: 2026-09-19T09:43:09.223968Z

Period
1,436.09 min
Inclination
0.0153°
Eccentricity
0.0000758
Mean motion
1.00272377 rev/d
Perigee alt
35,783.2 km
Apogee alt
35,789.6 km
Semi-major
42,164.6 km
B*
0.0000e+0
RAAN
177.3629°
Arg perigee
343.4226°
Mean anomaly
152.3337°
Rev number
2,928

§ Raw data

HORIZONS-3E1 43633U 18074B   26262.40496787 -.00000034  00000+0  00000+0 0  99982 43633   0.0153 177.3629 0000758 343.4226 152.3337  1.00272377 29283

JSON: /api/v1/satellites/43633 · /tle

For live sub-satellite position, see the globe view (requires WebGL).

§ Visibility from observer

Set your observer location to see the next 7 days of passes ≥ 10°. The values pass through the URL so the page stays shareable.

No JS? Fill the form by hand. The geolocation button needs JavaScript.